[新聞] 台大學生拒看中天新聞...政大學生也跟進

作者
看板 Gossiping
時間
留言 221則留言,180人參與討論
推噓 126 ( 141推 15噓 65→ )
討論串 3
1.媒體來源: 自由時報 2.完整新聞標題: 台大學生拒看中天新聞...政大學生也跟進! 3.完整新聞內文: 一名台灣大學學生代表日前在臉書發起投票活動,以「學生會應積極要求校內各餐廳,不 得以餐廳電視機播放中天新聞台」為旨,調查學生意見,目前有超過4000人投下支持票。 另外,政大也傳出學生餐廳電視經常被一名校外人士硬轉到中天,有學生看不下去,上臉 書呼籲同學們一起搶回遙控器反制。 台大社科院代表本月22日在臉書「NTU台大學生交流板」建立票選活動,認為學生會應該 積極要求校內餐廳,不得播放中天新聞台,活動上線後獲得廣大迴響,不少學生都表示支 持。學生代表認為,中天「已嚴重逾越媒體應有的角色」,除了長期為人詬病的偏頗報導 之外,近日又傳出「收視費」之疑慮,並指出公平交易委員會已經介入調查。 除了台大,政大也傳出有一名校外人經常進到校內,隨後把電視機轉到中天後就離開,此 舉令學生相當不滿,有學生直接從該人士手中搶走遙控器,並轉台到公視。 根據《天下》報導,政大學生鄭少軒直言,每次在學生餐廳看到中天不斷播噱嵽蒆鶞먊新聞,都讓他只想埋頭趕快吃一吃,「真的是必須抵制這種電視台,讓它直接消失。」另 有學生上臉書呼籲,若不想看中天,可以主動要求轉台,「不要連遙控器都搶輸!競爭力 拿出來啊大家!」 不過,政大學生會表示,因校內餐廳屬外包經營,學生會無權要求校方介入,只能與餐廳 協商,電視遙控器能放置在公共區域,讓大家自由轉台。 4.完整新聞連結 (或短網址): https://news.ltn.com.tw/news/politics/breakingnews/2738824 5.備註: 從牠手上搶走遙控器?! 不怕對方是酒促黨、竹筒幫之類的唷?! -- ※ 發信站: 批踢踢實業坊(ptt.cc), 來自: 220.138.66.235 ※ 文章網址: https://www.ptt.cc/bbs/Gossiping/M.1553562846.A.0A6.html
1FMei5566: 覺青真可怕 03/26 09:14
2Flouis5265: 學店表示 03/26 09:15
3Fzz71: 9.2支畜賤種:民進黨黑手伸入校園 03/26 09:15
4FGodHelpMe: 畢業後 都裝病 免役 像尿佐 狗昌 勝文那樣 03/26 09:15
5Fjohnhmj: 奇怪…校外人士怎麼會跑去學生餐廳??? 03/26 09:16
6Fmeredith001: 黨校造反了喔 03/26 09:16
7Fadm123: 校內餐廳怎麼會隨便把搖控器放在外人能拿到的地方? 03/26 09:16
8Fhikaru77613: 不只中天啦,都拒看所有新聞,太偏頗了,只看nhk,cnn 03/26 09:16
9Fnitu2009: 中天是中共代理人。中共的言論自由不需要你幫他保護,他 03/26 09:16
10Fjisson: 轉到松視二台吧 03/26 09:16
11Fhikaru77613: 之類的 03/26 09:16
12Fnitu2009: 在國內也沒有給自己的人民任何言論自由。 03/26 09:16
13Fadm123: 話說,應該立法強制「公共場所的電視」只能看DISCOVERY 03/26 09:16
14Fsam7207: 對方是前國大代表 03/26 09:17
15FWorkforme: 好耶 跟只能看鳳凰衛視差不多 03/26 09:17
16Fapplerev: 可憐 腦袋輸人只能躲在鍵盤和VPN後面罵 03/26 09:18
17Fpoqwiuer: 改看Animax好了 大家都愛 03/26 09:18
18Fkeither1009: 前黨校那個學餐真的讓人黑人問號 03/26 09:18
19FFaFaFaT: 校外人士為啥不能去餐廳==小學生喔 03/26 09:20
20Ffloz: 搶遙控器~科科 03/26 09:21
21FDIDIMIN: 大學餐廳本來就不限校內外人士阿 03/26 09:21
22Fpatentstm: 9.2崩潰 03/26 09:22
23Fwugi: 播教育頻道 看這些垃圾降低智商 03/26 09:23
24Fjustempty: 只剩保五不能轉台每天吃飯準時收看~~~ 03/26 09:26
25Fapp12519: 狗后 03/26 09:27
26Fsonyabear: 綠衛兵開始了,好恐怖歐 03/26 09:27
27Fnicehsing: 反觀警校... 03/26 09:28
28FPTTJim: 可是公視新聞像昨天同樣是訪外,第一則居然是韓訪中的新聞 03/26 09:29
29FPTTJim: 而不是總統訪諾魯… 03/26 09:29
30FCN091118: 中天根本宣傳機@@ 03/26 09:29
31Fkaitokid1214: 改接電腦撥放pronhub啦幹!世界和平 03/26 09:30
32FAthanasius: 都看公視和CNN就好啦,清大小吃部兩台就是 03/26 09:30
33FDia149: 你不可忽視的黨 03/26 09:31
34Fdrt35: 交大趕快跟進 03/26 09:33
35Frandolph80: 看Clinton News Network做啥? 03/26 09:33
36Frandolph80: CNN很偏頗的 03/26 09:33
37Floby1234: 未看先猜豬油時報 03/26 09:34
38Fhoodi: 就說是中夭了 當然是妖魔鬼怪 03/26 09:34
39Fsionxp: 萬用遙控器 03/26 09:34
40FMK250: 轉到中夭後就離開...... 03/26 09:35
41Fbluecup: 都大學生了....不爽就不要看!吵屁? 03/26 09:35
42Ftt165165: 黨校也不想看中天? 03/26 09:36
43Fbluecup: 到底長大了沒? 03/26 09:36
44Fkobe7610: 我也不想看三立、民視啊 還有邊吃飯邊看電視本來就不好 03/26 09:37
45Fwalkmancat: 公共場所看公共電視台不是最適合嗎? 03/26 09:37
46Fballby: 說故事時間?還有校外人士專門跑去切52XD 03/26 09:38
47Fballby: 把心思放在這裡不如多想辦法幫敬愛的蔡總統拉拉現實聲望吧 03/26 09:39
48FSupCat: 垃圾報 03/26 09:40
49Fstefanie520: 是不是為了讓餐廳的大陸學生變少? XDD 03/26 09:42
50Fcoffee112: 看大愛好了,然後其他頻道都砍掉算了 03/26 09:43
51Fpediatric826: 民眾也該有這種自覺 03/26 09:43
52FTravelFar: 讚讚讚 03/26 09:43
53Fpovin: 算是有腦 03/26 09:44
54Ffsuhcikt: 麻煩把校外人士報警抓起來存證 假如是共匪怎麼辦 03/26 09:48
55FNcCurator: 那是狗后 很有名常來亂的9.2老賊校友 可撥黨校 03/26 09:49
56FAidrux: 有沒有搞錯啊XD 黨校耶 03/26 09:51
57Fjatj: 邊吃飯邊看電視不好www民國幾年的觀念 03/26 09:52
58Fnightjoker: 簡單說白癡低等人種才看中天 03/26 09:52
59FNcCurator: 累犯了 自己不看 每過一段時間進來轉台一次就走人 03/26 09:53
60FNcCurator: 還喜歡跟在校生起爭議 真的87 03/26 09:53
61Fphilmaru: 幫推 03/26 09:55
62Fyongguo: 這不就是輿論綁架嗎? 03/26 09:55
63Fjennifer4551: 不怕地上撿到甩棍膩 03/26 09:56
64Fseemoon2000: 我覺得看公視最沒爭議 公視剛好也需要收視率 03/26 09:57
65FANCEE: 看公視很難 ? 03/26 09:58
66Fkiddking: 有腦的人都不會看中天。 03/26 09:59
67Fyongguo: 有人說不定覺得看新聞台秀下限很有趣,當娛樂台看阿。為 03/26 09:59
68Fyongguo: 什麼要干涉及剝奪別人的樂趣?這不正就是跟共產黨的因為 03/26 10:00
69Frex44391: 推 03/26 10:00
70Fyongguo: 我不喜歡,所以我要消滅喜歡人的行為舉止自由一模一樣? 03/26 10:00
71Fyongguo: 然後我覺得這些言行真的跟共產黨有13%不像... 03/26 10:02
72Fneuralandre: 中天就是標準利用民主消滅民主的敵國媒體 03/26 10:02
73FJokePtt: 不相信人的思辨能力 整天只想管制思想 真不愧是綠共打手 03/26 10:03
74Fneuralandre: 不是假新聞這麼簡單,放他存在是政府特別是NCC失職 03/26 10:03
75Fneuralandre: 綠真的共,直接抄了中天,全台殺光還是送集中營 03/26 10:04
76Fneuralandre: 我是很贊成殺光中天啦 03/26 10:04
77FMK250: 濫用自由作統戰是假自由 03/26 10:04
78FCishang: 當一個東西侵犯別人自由的時候就沒有所謂的自由 03/26 10:05
79FCishang: 中國要侵犯台灣的自由你在那邊講中國有侵犯台灣的自由 03/26 10:06
80FCishang: 你是哪裡有問題 如此簡單的邏輯都搞不清楚嗎? 03/26 10:06
81FCishang: 殺人犯有殺人的自由 你不要讓他殺就好 這就是你的邏輯 03/26 10:07
82FCishang: 敵我不分在那邊自以為清流 實在是 Zzz 03/26 10:08
83Falbert22: 推 03/26 10:08
84Fhikku: 加油 台灣一定要再一波學運對抗國民黨中共 03/26 10:12
85Fatlaswhz: 推 03/26 10:14
86Fsam88264: 中天真他媽噁心 03/26 10:15
87Fjaceda: 幹你娘中天,根本在侮辱人類智商 03/26 10:15
88Fjaceda: 政府不作為自然只能靠民間抵制,鬧大剛好而已 03/26 10:16
89Flucifier: 以前在貓空念書 男九舍餐廳不是都在看籃球棒球嗎 03/26 10:18
90Flucifier: 怎麼會有人看新聞台啦 03/26 10:18
91Fbruceytw: 看到中天不斷播噱嵽蒆鶞? 03/26 10:19
92Fapp12519: 是棄嫌樓啦 03/26 10:20
93Fawoorog: 政大捏 黨校欸 一定是支持看中天的 03/26 10:20
94Fawoorog: 我不信政大會抵制中天 03/26 10:21
95Fadort: 這樣看中天的都哪間啊 03/26 10:21
96Fjack0216: 賤畜真噁心 垃圾中舔都看得下去 03/26 10:21
97Febeta: 台灣已經沒人能制止中天跟東森惹 03/26 10:22
98Furmfo: 推 03/26 10:23
99Fheavenkghs: 不愧是黨校 03/26 10:24
100Frock8655: 黨校認真? 03/26 10:26
101Frobertchun: 憩賢樓啦 山上沒人會轉中天 03/26 10:26
102Fsgamerisme: 覺青最三民自這些綠色洗腦媒體 03/26 10:26
103Fnosheep: 推 03/26 10:27
104Faniki66: 台灣人就沒種啊 不敢把這兩台操掉 03/26 10:27
105Frobertchun: 政大有好幾個愛跟學生起衝突的9.2老校友.. 03/26 10:27
106Fnosheep: 不過悲哀的是民視,三立也沒好多少,規定只能看公視跟台 03/26 10:28
107Fnosheep: 視好了 03/26 10:28
108Fnewforte: 智商高下立判 03/26 10:29
109Fhomer0403: 八卦版也一堆中天新聞被五毛洗版推爆 03/26 10:30
110Flucifier: 喔,原來是山下喔,那的確是很容易有校外進去搞事 03/26 10:31
111Fz01170117: 狗后 03/26 10:31
112Fdavid12763: 廠工上班囉~~ 03/26 10:32
113Fdrmit: 水 03/26 10:35
114FEverforest: 你不看黨校9.2教授要看啊 你只在乎你自己 03/26 10:38
115Falan5: 看韓總賣台總比菜去秘魯重要了吧... 03/26 10:41
116FNXT0614: 抵制一間公司跟言論自由根本無關 難道抵制頂新就是侵害他 03/26 10:45
117Fkevin79416: 垃圾校外人士 03/26 10:45
118FNXT0614: 們自由? 03/26 10:45
119Fpowertoolman: 假新聞沒有接受言論自由 03/26 10:45
120FdreamerV: 支持 03/26 10:58
121Fzhizhi0704: 用民主侵害民主的人真的很下賤 03/26 11:02
122Fbfh: 高知識份子的覺醒 03/26 11:07
123Ffishsolo: 青椒勒 03/26 11:08
124Fhamobi99: 他就狗后齁 03/26 11:08
125Fnoname912301: 噱嵽蒆鶞?這個好看嗎? 03/26 11:09
126Flocomorrrr: 噱嵽蒆鶞這啥意思R 03/26 11:10
127Fmjnaoki: 推 幹他媽的垃圾統媒 03/26 11:12
128Fant0210: 拒看是自由 有人愛看也是自由 03/26 11:13
129Fbenyouth: 9.2崩潰 03/26 11:13
130Fant0210: 但是不求證的新聞沒有存在的必要 03/26 11:14
131Fcatnip25: 推 03/26 11:19
132Fromusutoru: 自己不求證就不要怪人抵制不看 03/26 11:20
133Fsalvador1988: 公視吃虧的地方就是不跟隨新聞娛樂化 一般人不愛 03/26 11:21
134Fak5618: DPP的校園綠衛兵開始了… 03/26 11:23
135Fhitolin: X大真的很綠 難道是過去黨校的重現嗎? 03/26 11:24
136Fyccm: 看體育台 03/26 11:32
137Fcolaer: 台大先去管管你們的法律系比較重要 03/26 11:36
138Fstephenlin: 讚喔 03/26 11:37
139FAudien: 辣雞狗后 03/26 11:42
140Fbtmep: 連中國黨校都淪陷了 綠真的很邪惡 03/26 11:45
141Fluke7212: 以前的政大是黨校,這幾年真的進步了很多喔 03/26 11:46
142Fkazamitaketo: 台灣學生覺醒拒看中夭垃圾媒體!! 03/26 11:47
143FyUanXM5120: 電視機不要設置就好了 03/26 11:48
144FCGtheGREAT: 黨工不看可以啊 你能強迫同學不看嗎? 03/26 11:52
145FMozar: 黨校居然造反了... 03/26 12:01
146Fzxcvbnmnbvcx: 噱嵽蒆鶞? 03/26 12:03
147Fslow: 幫推 03/26 12:13
148Frayonwu: 高調 03/26 12:16
149Fk6t6g: 直接收掉中夭的媒體執照吧 03/26 12:16
150FSeTeVen: 造反了?黨校還不看? 03/26 12:17
151Fshawnm80: 我們公司餐廳也會被人故意轉到中天 03/26 12:17
152Fbingreen: 超讚 03/26 12:19
153Fsin31429: 拒看韓天台 03/26 12:21
154Fcup18: 拒絕統媒人人有責啊 03/26 12:22
155Fzxc1213: . 03/26 12:22
156FSDKSDKSDK: 腦殘們怎麼會了解自由?他們以為什麼都可以就叫自由, 03/26 12:22
157FSDKSDKSDK: 以為什麼都不行才叫獨裁。XDDD 03/26 12:23
158Frave16: 中夭干綠屁事啊= = 03/26 12:23
159Fkkb512sk: 都來看公視啦打打殺殺還能吃飯喔?還有播餐廳蟑螂的嘔嘔 03/26 12:25
160Fkkb512sk: 嘔嘔,霉体不知道很多人都新聞配飯ㄇ 03/26 12:25
161Fremem: 早就拒看統戰台了 03/26 12:27
162Fpassmod: 拒看中夭 03/26 12:28
163Ffulongb210f: 4000人怎麼調查的?有掛嗎? 03/26 12:30
164Fgillowish: 推 03/26 12:30
165Fmomom: 喜韓兒電視台 03/26 12:30
166Flove90619: 垃圾台 看了降低智商 03/26 12:32
167Fjasonmv123: 不能看韓天 是要喜韓兒如何自慰? 03/26 12:33
168Fqickly: 跟韓狗一樣都中資的 03/26 12:34
169Fbassplayer: 中天賈靜文 03/26 12:34
170Fsigmat: 洗腦式媒體…太可怕 03/26 12:35
171Fqwer338859: 樓上智商堪慮 4000人怎麼調查的怎不去問你媽 03/26 12:39
172Fjustatree: 推 03/26 12:40
173Fmrser: 抵制中夭啦 03/26 12:42
174Fcardcar: 原來政大學生連選台的權力都沒有 03/26 12:46
175Fminitennis: 垃圾媒體 03/26 12:47
176Fjoy2001billy: 推推 03/26 12:48
177Fbreaki: 推 03/26 12:49
178FBouchard: 跟進 03/26 12:49
179Fninstagram00: 推阿 03/26 12:50
180FBirken: 推跟進 03/26 12:50
181FDeanfluenza: 要跟上 03/26 12:50
182FHariclia: 推 03/26 12:51
183FLiebig: 拒看中夭 03/26 12:51
184Fjoy2001billy: 垃圾中天 03/26 12:51
185Flove90619: 弱化智商術 03/26 12:52
186Fjasonmv123: 看中夭 腦袋會不好 03/26 12:52
187Fsorrymylove: 推啦 03/26 12:57
188Fllll22223333: 全國都應該跟進 03/26 12:58
189Fbbbbbbmytel: 高調 03/26 12:59
190Fbeek: 到底是去吃飯還是搶遙控器的 03/26 12:59
191FBasebaIIGod: 高調 03/26 12:59
192FKlMJONGUN: 中天滾出台灣 03/26 13:00
193FDeanfluenza: 再推 03/26 13:00
194Fjoy2001billy: 可憐哦 03/26 13:01
195Fosirisdivine: 爽 我們政大不看智障電視台 03/26 13:02
196FMK250: 垃圾媒體被抵制就市場機制啊,扯什麼害言論自由 03/26 13:06
197Flioujason: 推 03/26 13:16
198Fi8looimc: 爽 大學119 研所112 覺得驕傲 03/26 13:21
199Fevan19983314: 南部黨校直接播三立給你看,沒在怕的 03/26 13:23
200Frubio0919: 中視tvbs東森一起 垃圾kmt 03/26 13:24
201Flovejamwu: 黨校造反喔~~~~~~ 03/26 13:36
202Fyoher: 03/26 13:41
203Ftwptt: 黨校覺醒 03/26 14:03
204Ffcs83210: 垃圾中天 台灣特定垃圾老人愛看不意外 03/26 15:38
205FEXPCDR: 推 03/26 15:50
206FLENMAN: 真的很無聊,抵制最公正電視臺幹嘛! 03/26 17:37
207Fkasim4025: 推 03/26 18:22
208Fag688796: 公視讚 03/26 19:16
209Fparulky: 加油 03/26 19:45
210FPoltPrimeWe: 轉台走路工?? 03/26 19:53
211Fqsdd0236: 自從幾年前看到中天智障記者梗圖包之後就沒再看過中天 03/26 20:21
212Fqsdd0236: ,沒想到我的直覺是對的XD 03/26 20:21
213Fqsdd0236: 這種電視台會淪為花錢就能收買的宣傳機真的不用太意外 03/26 20:22
214Fstacy62123: 求我學校跟進 03/26 20:26
215Fcosloy: 推 03/26 21:11
216Fkusami: 垃圾五毛繼續干涉別國民主祝你們被炸死再被黨和諧 03/26 22:20
217Fsbilor: 推台大 政大,希望大葉站出來 03/26 22:28
218Fbluelygrey: 全台串聯抵制好嗎 03/26 22:48
219Fa40006: 垃圾中夭 03/26 23:20
220Flllkkkjjj: 前四樓好會帶風向 03/27 01:26
221Fsallyke: 推 03/27 10:19

完整討論串

留言數 標題 作者 日期
221 >> [新聞] 台大學生拒看中天新聞...政大學生也跟進 LDMisshit 2019/03/26 09:14:04
16 [新聞] 台大學生拒看中天新聞...政大學生也跟進 baboosh 2019/03/26 11:51:00
4 Re: [新聞] 台大學生拒看中天新聞...政大學生也跟進 baboosh 2019/03/26 21:41:07

最新熱門文章

2 [新聞]
58 gossiping stcr3011 2019/09/23 16:44:53

八卦 熱門文章